Printer-friendly version

IAU Minor Planet Center

Minor Planet Center

MPEC 2008-C10 : 2008 CJ

The following Minor Planet Electronic Circular may be linked-to from your own Web pages, but must not otherwise be redistributed electronically.


Read MPEC 2008-C09 Read MPEC 2008-C11


M.P.E.C. 2008-C10                                Issued 2008 Feb. 2, 16:14 UT

     The Minor Planet Electronic Circulars contain information on unusual
         minor planets and routine data on comets.  They are published
   on behalf of Commission 20 of the International Astronomical Union by the
          Minor Planet Center, Smithsonian Astrophysical Observatory,
                          Cambridge, MA 02138, U.S.A.

             Prepared using the Tamkin Foundation Computer Network

                              MPC@CFA.HARVARD.EDU
          URL http://www.cfa.harvard.edu/iau/mpc.html  ISSN 1523-6714

                                    2008 CJ

Observations:
     K08C00J* C2008 02 02.24586 08 46 08.65 +18 28 33.8          20.9 V EC010G96
     K08C00J  C2008 02 02.25154 08 46 16.06 +18 28 28.9          20.8 V EC010G96
     K08C00J  C2008 02 02.25723 08 46 23.55 +18 28 24.0          20.7 V EC010G96
     K08C00J  C2008 02 02.26296 08 46 30.97 +18 28 18.7          20.7 V EC010G96
     K08C00J  C2008 02 02.28484 08 46 59.55 +18 27 58.2          20.8 V EC010G96
     K08C00J  C2008 02 02.28532 08 47 00.24 +18 27 57.9          20.6 V EC010G96
     K08C00J  C2008 02 02.28580 08 47 00.85 +18 27 57.4          20.6 V EC010G96
     K08C00J  C2008 02 02.28627 08 47 01.39 +18 27 57.0          20.8 V EC010G96
     K08C00J  C2008 02 02.42796 08 50 07.51 +18 25 12.3          20.8 V EC010G96
     K08C00J  C2008 02 02.42904 08 50 09.02 +18 25 10.9          21.6 V EC010G96

Observer details:
G96 Mt. Lemmon Survey.  Observer A. R. Gibbs.  Measurers E. C. Beshore,
    A. Boattini, G. J. Garradd, A. R. Gibbs, A. D. Grauer, R. E. Hill,
    R. A. Kowalski, S. M. Larson, R. H. McNaught.  1.5-m reflector + CCD.

Orbital elements:
2008 CJ                                                  Earth MOID = 0.0423 AU
Epoch 2007 Oct. 27.0 TT = JDT 2454400.5                 MPC
M 335.85417              (2000.0)            P               Q
n   0.23882561     Peri.    3.89251     -0.71819041     -0.69520833
a   2.5728558      Node   132.01611     +0.63733890     -0.67438793
e   0.6007915      Incl.    2.29858     +0.27928777     -0.24876955
P   4.13           H   27.3           G   0.15           U   9
Residuals in seconds of arc
080202 G96  0.0   0.0     080202 G96  0.3-  0.1-    080202 G96  0.5-  0.0
080202 G96  0.2-  0.0     080202 G96  0.6+  0.0     080202 G96  0.5+  0.0
080202 G96  0.5+  0.1+    080202 G96  0.4+  0.0
080202 G96  0.4-  0.1-    080202 G96  0.6-  0.1+

Ephemeris:
2008 CJ                  a,e,i = 2.57, 0.60, 2                   q = 1.0271
Date    TT    R. A. (2000) Decl.     Delta      r     Elong.  Phase     V
2008 01 25    06 25.09   +16 53.5    0.0601   1.037   151.1    27.3    22.5
2008 01 26    06 36.66   +17 16.0    0.0571   1.036   152.9    25.7    22.3
2008 01 27    06 49.61   +17 38.1    0.0543   1.034   155.0    23.7    22.2
2008 01 28    07 04.07   +17 59.0    0.0516   1.033   157.5    21.4    22.0
2008 01 29    07 20.13   +18 17.4    0.0492   1.031   160.3    18.7    21.8
2008 01 30    07 37.87   +18 31.9    0.0471   1.030   163.5    15.7    21.6
2008 01 31    07 57.26   +18 40.6    0.0452   1.029   167.1    12.3    21.4
2008 02 01    08 18.20   +18 41.6    0.0438   1.028   171.1     8.6    21.2
2008 02 02    08 40.43   +18 33.2    0.0426   1.028   175.2     4.6    20.9
2008 02 03    09 03.58   +18 13.9    0.0419   1.027   178.6     1.4    20.7
2008 02 04    09 27.19   +17 43.4    0.0416   1.027   175.2     4.6    20.9
2008 02 05    09 50.70   +17 02.1    0.0417   1.027   170.6     9.0    21.1
2008 02 06    10 13.61   +16 11.8    0.0423   1.027   166.1    13.4    21.3
2008 02 07    10 35.46   +15 14.6    0.0433   1.027   161.7    17.5    21.5
2008 02 08    10 55.91   +14 13.3    0.0446   1.028   157.7    21.4    21.6
2008 02 09    11 14.78   +13 10.2    0.0463   1.028   154.0    24.9    21.8
2008 02 10    11 31.98   +12 07.5    0.0483   1.029   150.6    28.0    22.0
2008 02 11    11 47.52   +11 06.9    0.0506   1.030   147.7    30.8    22.2
2008 02 12    12 01.48   +10 09.3    0.0531   1.031   145.1    33.2    22.4
2008 02 13    12 13.98   +09 15.4    0.0558   1.032   142.9    35.2    22.6
2008 02 14    12 25.15   +08 25.4    0.0587   1.034   141.0    37.0    22.7

Timothy B. Spahr             (C) Copyright 2008 MPC           M.P.E.C. 2008-C10

Read MPEC 2008-C09 Read MPEC 2008-C11


Our Web policy. Index to the CBAT/MPC/ICQ pages.


Valid HTML 4.01!